Showing default

MENUT, 55010

Orbit data source: Space-Track

MENUT, 55010 is a Spanish payload satellite in SSO that was launched on Tue, 03 Jan 2023 UTC via an FALCON 9 launch vehicle from the Air Force Eastern Test Range (AFETR). Payload-class satellites include a variety of spacecraft equipped with specific instruments for various scientific and technological missions. These include communications satellites like Starlink; space stations such as the ISS; scientific satellites like the Hubble; Earth observation satellites from companies like Planet Labs, Umbra, and HawkEye 360; GPS; miniature CubeSats for education and research; and military/defense satellites.

Loading next visibility...
Identifier
55010, 2023-001B
Orbit
SSO
Country
Flag of ESES / SPN
Related business
Manufacturer
Open Cosmos
Mission
Operational Commercial Imaging
Bus & Motor
CUBESAT 6U, Unknown motor
Mass
10 kg wet, ~10 kg dry
Launch date (UTC)
2023-01-03 (3 years ago)
Launch vehicle
FALCON 9
Launch site
Air Force Eastern Test Range (AFETR)
Object type
Payload
Rocket body
Debris
Shape & HBR
Box + 2 Pan, 1.0 m
Radar Cross Section
0.080 m², Medium (>0.1 m² and < 1m²)

Expand to show TLE details & history
Last TLE update: 1 week ago

TLE from 1 week ago
0 MENUT
1 55010U 23001B   26155.13011878  .00070605  00000-0  91731-3 0  9997
2 55010  97.3145 222.6683 0006122 153.5085 206.6485 15.58556999190361
Epoch: 2026-06-04T03:07Z
TLE epoch observation values (Epoch: 2026-06-04T03:07:22.262Z)
Latitude
-0.00005°
Longitude
-76.75326°
Altitude
398.683 km
Speed
7.669 km/s
True Right ascension
14h 50m 40s
True Declination
0° 00' 00"
Sunlit
Object was in full shadow at epoch
Visualization orbit readout
Latitude
Unknown
Longitude
Unknown
Altitude
Unknown
Speed
Unknown
Apparent Right ascension
Unknown
Apparent Declination
Unknown
Sunlit
N/A
Visualization observer readout
Local Sidereal Time
15:28:34
Azimuth
Unknown
Elevation
Unknown
Doppler factor
Unknown
Orbital elements
Apogee altitude
392.886 km
Perigee altitude
384.601 km
Semi-major axis
6,766.88 km
Eccentricity
0.00061
Inclination
97.3145°
RAAN
222.6683°
Arg. of periapsis
153.5085°
True anomaly
206.61706°
Mean anomaly
206.6485°
Eccentric anomaly
206.63278°
Mean motion
3.89906 °/min
Orbital period
92.33 mins
BSTAR
0.00091731
Loading maneuver chart data...
Computing Atmospheric mass density...

Documentation

Showing up to 5 results
|